This demonstration page uses our WeatherBlox Daily Observations layout. Learn more.

Left ArrowRight Arrow

Hourly Observations for September 27, 2015

Temp ( °F °C ) Dew Point ( °F °C ) Humidity (%) Winds ( mph kmh ) Pressure ( in mb ) Visibility ( mi km ) Precip ( " mm )
12:51 am 00:51 Clear 66 18.9 55 12.8 68 68 NE 5 7 29.83 1010 10 16.0934 0 0
1:51 am 01:51 Clear 66 18.9 55 12.8 68 68 ENE 5 7 29.83 1010 10 16.0934 0 0
2:51 am 02:51 Clear 63 17.2 55 12.8 76 76 W 3 6 29.82 1010 10 16.0934 0 0
3:51 am 03:51 Clear 62 16.7 54 12.2 75 75 N 3 6 29.82 1010 10 16.0934 0 0
4:51 am 04:51 Clear 61 16.1 54 12.2 78 78 Calm 29.84 1010 10 16.0934 0 0
5:51 am 05:51 Clear 62 16.7 53 11.7 73 73 SSE 5 7 29.86 1011 10 16.0934 0 0
6:51 am 06:51 Sunny 63 17.2 53 11.7 70 70 Calm 29.88 1012 10 16.0934 0 0
7:51 am 07:51 Sunny 69 20.6 52 11.1 55 55 SSE 3 6 29.9 1013 10 16.0934 0 0
8:51 am 08:51 Sunny 75 23.9 52 11.1 45 45 SSE 7 11 29.9 1013 10 16.0934 0 0
9:51 am 09:51 Sunny 80 26.7 49 9.4 34 34 SSE 9 15 29.89 1012 10 16.0934 0 0
10:51 am 10:51 Sunny 84 28.9 47 8.3 27 27 S 7 11 29.87 1012 10 16.0934 0 0
11:51 am 11:51 Sunny 87 30.6 45 7.2 23 23 Calm 29.85 1011 10 16.0934 0 0
12:51 pm 12:51 Sunny 90 32.2 46 7.8 22 22 W 5 7 29.81 1010 10 16.0934 0 0
1:51 pm 13:51 Sunny 92 33.3 46 7.8 21 21 W 9 15 29.78 1009 10 16.0934 0 0
2:51 pm 14:51 Sunny 93 33.9 44 6.7 18 18 W 8 13 29.76 1008 10 16.0934 0 0
3:51 pm 15:51 Sunny 94 34.4 43 6.1 17 17 WNW 9 15 29.74 1007 10 16.0934 0 0
4:51 pm 16:51 Sunny 93 33.9 43 6.1 18 18 WNW 9 15 29.74 1007 10 16.0934 0 0
5:51 pm 17:51 Sunny 89 31.7 46 7.8 23 23 WNW 8 13 29.74 1007 10 16.0934 0 0
6:51 pm 18:51 Clear 79 26.1 51 10.6 38 38 NW 7 11 29.76 1008 10 16.0934 0 0
7:51 pm 19:51 Clear 81 27.2 51 10.6 35 35 WNW 9 15 29.77 1008 10 16.0934 0 0
8:51 pm 20:51 Clear 78 25.6 52 11.1 40 40 WNW 10 17 29.78 1008 10 16.0934 0 0
9:51 pm 21:51 Clear 77 25 47 8.3 35 35 WNW 7 11 29.78 1008 10 16.0934 0 0
10:51 pm 22:51 Clear 72 22.2 48 8.9 43 43 NNW 3 6 29.79 1009 10 16.0934 0 0
11:51 pm 23:51 Clear 70 21.1 53 11.7 55 55 SSE 3 6 29.78 1009 10 16.0934 0 0

Powered by AerisWeather